timestamp,gas_concentrations,,corrected_fluxes_and_quality_flags,,,,,,,,,,storage_terms,,,turbulence,,,footprint,,
ISOdate,CO2_1_1_1,H2O_1_1_1,Tau_1_1_1,QcTau_1_1_1,H_1_1_1,QcH_1_1_1,LE_1_1_1, QcLE_1_1_1,Fc_1_1_1, QcFc_1_1_1,E_1_1_1, QcE_1_1_1,Sa_1_1_1,Sw_1_1_1,Sc_1_1_1,ustar_1_1_1,MO_length_1_1_1,ZL_1_1_1,Fetchmax_1_1_1,Fetch70_1_1_1,Fetch90_1_1_1
yyyymmddHHMM,[µmol+1mol_a-1],[mmol+1mol_a-1],[kg+1m-1s-2],[#],[W+1m-2],[#],[W+1m-2],[#],[µmol+1s-1m-2],[#],[mmol+1s-1m-2],[#],[W+1m-2],[W+1m-2],[µmol+1s-1m-2],[m+1s-1],[m],[#],[m],[m],[m]
201301030030,-9999.,2.6065066918426649,0.17607621452389344,0,-1.5262024145924455,0,-8.40337451226372094E-003,0,-9999.,-9999.,-1.84856764555050434E-004,0,-9999.,-9999.,-9999.,0.37363971972226645,2881.0710893190403,7.49721174186829958E-003,113.16677818163517,206.90496320874522,309.98133790739257
201301030100,-9999.,2.6181259514507369,0.12524029558450073,0,-1.9418545788255510,1,-1.04560266586101250E-002,0,-9999.,-9999.,-2.30001047682652798E-004,0,-1.1189988420092920,0.44770858738858438,-9999.,0.31510916984726001,1358.1309493696090,1.59042101279157737E-002,100.08733237920467,182.99156480661745,274.15470950928386
201301030130,-9999.,2.6160039986462258,0.18478076317966988,0,0.32056370832419051,2,2.76114926571528890E-002,0,-9999.,-9999.,6.07338743185061470E-004,0,-1.3330407483601134,-8.17735282493120830E-002,-9999.,0.38273501452676573,-14740.721291949965,-1.46532856650616870E-003,109.06619474481613,199.40778887223027,298.74920458725944
201301030200,-9999.,2.6240265911676190,0.17933664597195798,0,-0.43067111413051362,0,-3.43455380066416867E-004,0,-9999.,-9999.,-7.55431765536415050E-006,0,-0.97927972786596895,0.30919959295568228,-9999.,0.37704180684399335,10489.073694287968,2.05928575101562176E-003,121.25071862238276,221.68498457499808,332.12450318655812
201301030230,-9999.,2.6527336265733061,0.12091287427022339,0,-0.45858071744568157,0,-1.12938851214154611E-002,2,-9999.,-9999.,-2.48408381431548602E-004,2,-0.12347203562860119,1.1067006322070185,-9999.,0.30955357310759674,5452.3613865573006,3.96158626852108776E-003,100.25404597720099,183.29637043432970,274.61136388245433
201301030300,-9999.,2.6855322091024965,0.22935186113854608,0,0.43723032138578188,1,2.08402631812785975E-002,0,-9999.,-9999.,4.58385608255117778E-004,0,0.29633396419665992,1.2644197811495768,-9999.,0.42633769663466958,-14940.316451291437,-1.44575250935417127E-003,115.73440711367662,211.59940779976353,317.01447134454384
201301030330,-9999.,2.6766488033689475,0.18280735283097341,1,-0.72067876871423775,2,7.11958044104147453E-003,0,-9999.,-9999.,1.56600761979919250E-004,0,0.70781601950234430,-0.34241085667959087,-9999.,0.38065097075496634,6451.2051895423929,3.34821159231057843E-003,111.76116827996697,204.33506001221059,306.13115462130781
201301030400,-9999.,2.6863564535179987,0.19927428132543054,0,-0.20784106246649375,2,-7.12316081350366278E-003,2,-9999.,-9999.,-1.56683341910072782E-004,2,0.64202041462697368,0.37419939299058813,-9999.,0.39741180608592458,25459.306433490288,8.48412742759811116E-004,106.57753646194459,194.85772781429131,291.93238399278550
201301030430,-9999.,2.7791487554980367,0.19739322683782129,0,0.32710185775741446,2,3.01779977891273492E-003,2,-9999.,-9999.,6.63887916185519752E-005,2,3.2825873780992771,3.5746125194991594,-9999.,0.39563775282586711,-15961.498343960806,-1.35325641330988084E-003,111.39175765034014,203.65965956377525,305.11928167547609
201301030500,-9999.,2.8718895771117627,0.17122869387248654,0,-0.10585375850032655,2,-2.38166394094032063E-002,2,-9999.,-9999.,-5.24036830533490907E-004,2,4.6536225872548727,3.5697290497683993,-9999.,0.36860851080186230,39891.948406385913,5.41462647548753701E-004,96.906104974741567,177.17526651081684,265.44083479385819
201301030530,-9999.,2.9141068399052741,0.32787409504619336,0,-2.9532788720460630,0,-7.45910186533497443E-002,0,-9999.,-9999.,-1.64153099715556145E-003,0,4.9066081258918492,1.6240592103670084,-9999.,0.51017569284135811,3791.9740354063915,5.69624153496744567E-003,121.02740748579482,221.27670059588127,331.51281938675919
201301030600,-9999.,2.9484022260649949,0.29720794280849994,0,-3.8768468326084129,0,-0.10936862896253030,0,-9999.,-9999.,-2.40724083825690589E-003,0,3.8777797440596737,1.3186040965031769,-9999.,0.48582924583664450,2494.8814860571406,8.65772587624440496E-003,114.01519306230603,208.45613619865932,312.30527770701099
201301030630,-9999.,2.9707913854007808,0.17121276877552952,0,0.18756614681343672,2,1.23609482521114152E-002,2,-9999.,-9999.,2.72091622187523854E-004,2,2.2096559148884527,0.86061569641791313,-9999.,0.36877263377350239,-22555.675659171913,-9.57630368798848127E-004,109.93927615333941,201.00406014204418,301.14070982815031
201301030700,-9999.,3.0074814622390256,0.16283360183373899,0,-1.0206681322526845,1,-4.57371223426703277E-002,0,-9999.,-9999.,-1.00690357513270293E-003,0,3.3581154008514225,1.4094878475377617,-9999.,0.35972215683115044,3847.4162223358167,5.61415733359006339E-003,104.97534592216643,191.92841251511283,287.54373588348022
201301030730,-9999.,3.0697925193761408,0.13941361706616209,0,-0.91761675243344132,2,-4.19674815552883093E-002,1,-9999.,-9999.,-9.24115571102892283E-004,1,5.6855701469269642,2.3913702124258340,-9999.,0.33298236711807128,3394.6112188532557,6.36302616336039979E-003,99.214844103341591,181.39637797247636,271.76482895064089
201301030800,-9999.,3.1828743402890378,0.30084209537699774,0,-19.371963924052473,1,-0.47614749796217198,1,-9999.,-9999.,-1.04886939949935861E-002,1,10.020444264100767,4.3322979865559788,-9999.,0.48948800867323911,510.86455367824465,4.22812658354923265E-002,116.84586387923586,213.63150524815995,320.05892361887913
201301030830,-9999.,3.2989857529931066,0.36410675887652766,0,-9.4245067572318710,1,-0.27437193824236750,1,-9999.,-9999.,-6.04623990189135686E-003,1,9.9580793806499628,4.4406804179274211,-9999.,0.53887649613313737,1401.2909835225551,1.54143573704457002E-002,100.57650647823189,183.88593107371616,275.49463315226967
201301030900,-9999.,3.3658594735139085,0.37747618669049321,0,-0.88928243300290044,0,-3.48494896887775740E-002,0,-9999.,-9999.,-7.68129096432634871E-004,0,5.5286944876010224,2.5557792409065514,-9999.,0.54882321418397650,15692.505007391044,1.37645328071117862E-003,108.23488292445741,197.88788573130805,296.47211271954336
201301030930,-9999.,3.3818565333947510,0.38729914915517577,0,5.4183755189472516,0,9.08301958502149842E-002,1,-9999.,-9999.,2.00211504992473151E-003,1,1.2596007273771563,0.61139517098893559,-9999.,0.55589759641329906,-2676.9239937821822,-8.06896275358259807E-003,118.95509747833957,217.48785697287505,325.83644122179248
201301031000,-9999.,3.4026109385713124,0.42950943379974527,0,6.2573652380800571,0,0.10545724845771660,1,-9999.,-9999.,2.32469299176444634E-003,1,1.8239961939562084,0.79317108524299906,-9999.,0.58540579150684247,-2707.6493183201733,-7.97739938250225517E-003,118.94176486914220,217.46348071104467,325.79992113963408
201301031030,-9999.,3.4346870468390409,0.57724267349367586,0,13.227185721825558,1,0.37778422196074141,0,-9999.,-9999.,8.32898352083078115E-003,0,3.5401984611845907,1.2251720234948709,-9999.,0.67880275440268600,-1997.1802430410733,-1.08152481856670282E-002,121.04829609194719,221.31489163000703,331.57003651519716
201301031100,-9999.,3.3820384206991272,0.47571568880721232,0,7.7440169665810092,1,0.30479256350483969,1,-9999.,-9999.,6.71916347539580454E-003,1,-2.2411800578141494,-2.0120107248325976,-9999.,0.61608202650149679,-2550.5200820600903,-8.46886097934715538E-003,110.32074127804945,201.70150005207566,302.18560190356880
201301031130,-9999.,3.2620352955813705,0.65211637626321217,0,22.610407554618991,0,0.55465828852771759,1,-9999.,-9999.,1.22251799550285051E-002,1,-4.8703839494550438,-4.5903527749154307,-9999.,0.72102928422885559,-1400.3102923323270,-1.54251526381510070E-002,118.12913973157606,215.97774278607909,323.57401499113854
201301031200,-9999.,3.0017251276103010,0.42908884960599503,0,29.224575345264068,0,0.85130775087630373,0,-9999.,-9999.,1.87652385205290297E-002,0,2.2661936116163006,-9.9516599534636807,-9999.,0.58498973747946670,-578.50842226396276,-3.73373993683091404E-002,101.63093516209501,185.81376300059833,278.38287667571092
201301031230,-9999.,2.8563702753369187,0.66018310891756415,0,39.683266377865934,0,0.81533946712871319,0,-9999.,-9999.,1.79715382900375864E-002,0,-1.2434501273216998,-5.5568976930867411,-9999.,0.72561459577332454,-812.90268928135981,-2.65714461088759728E-002,114.10722337907357,208.62439696927450,312.55736300251937
201301031300,-9999.,2.8872137533480040,0.46032746923800283,0,35.761562681360260,0,0.73385609412434760,1,-9999.,-9999.,1.61753469297009483E-002,1,-0.24539013783899277,1.1790148787912054,-9999.,0.60594791269461312,-525.25636541116387,-4.11227762715294307E-002,110.06989158388997,201.24286680674558,301.49848572814483
201301031330,-9999.,2.8384506947241350,0.46083362096985875,0,4.8258337200381058,2,-0.12201444158238541,2,-9999.,-9999.,-2.68865021054366183E-003,2,-7.1885265395338909,-1.8662960970080511,-9999.,0.60598643058844726,-3892.6708550578437,-5.54888938835776131E-003,107.54158689025947,196.62031946536504,294.57306747234514
201301031400,-9999.,2.7422921920839993,0.40649860520809472,0,33.990647309881076,0,0.65750788851565534,0,-9999.,-9999.,1.44895203325774366E-002,0,1.8007157535112273,-3.6790082540080133,-9999.,0.56920765279522056,-458.01553035686294,-4.71599729012908281E-002,115.85271737747514,211.81571669511055,317.33854148641518
201301031430,-9999.,2.6837280175136797,0.62638159548075412,0,107.16457111891248,0,1.9535625275780566,0,-9999.,-9999.,4.30766738385342102E-002,0,15.682660158167096,-2.2334929911844408,-9999.,0.70748987702999322,-278.91797426843232,-7.74421227482888358E-002,118.44599817806569,216.55706108308047,324.44193936566188
201301031500,-9999.,2.5979761255770701,0.66899647430662912,0,45.515994298535972,0,0.85757948225678593,0,-9999.,-9999.,1.89085049674845226E-002,0,-1.9184149740257208,-3.2705202089383332,-9999.,0.73115817574000452,-724.65511955253794,-2.98072826882636657E-002,115.16040807874955,210.54995449631414,315.44219906054661
201301031530,-9999.,2.5459453350943062,0.44380993392410628,0,18.028755313549937,0,0.37594350503660201,0,-9999.,-9999.,8.28888784099622578E-003,0,-0.54712601923483417,-1.9851082992626554,-9999.,0.59541928711948522,-988.17917645375780,-2.18583841014694594E-002,107.65056778043672,196.81957129028126,294.87158301450597
201301031600,-9999.,2.5471450632524792,0.38241608545965072,0,-13.314779001349114,0,-7.52875991372447401E-002,0,-9999.,-9999.,-1.65984921103564764E-003,0,-1.7069705760711151,4.57828168435270647E-002,-9999.,0.55266106476219090,1069.8973166769163,2.01888533257464850E-002,99.621719360671008,182.14027570908218,272.87932331599217
201301031630,-9999.,2.5910118975173382,0.36652026799427995,0,-32.006361375113634,0,-0.42829886457579380,1,-9999.,-9999.,-9.43979373460272775E-003,1,-7.7749225898100729,1.6761761409996874,-9999.,0.54078713128543665,416.95009803336455,5.18047605741816103E-002,98.451328788701474,180.00042846659423,269.67344221552457
201301031700,-9999.,2.6234691402464541,0.58455646519745064,0,-35.436333702770277,0,-0.42625469823596135,1,-9999.,-9999.,-9.39090945607872971E-003,1,-10.645800163670682,1.2427706500645768,-9999.,0.68239180734734661,756.66140476895623,2.85464540200718736E-002,114.59290553907071,209.51237885812941,313.88772168350982
201301031730,-9999.,2.5815620479299244,0.67688755973706560,0,-47.994085360130647,0,-0.62133706805850863,0,-9999.,-9999.,-1.36846524475668987E-002,0,-7.9444915887601635,-1.6069795631448847,-9999.,0.73387086259933176,694.86976772546313,3.10849615327256114E-002,103.40299993618528,189.05366257870756,283.23683663072012
201301031800,-9999.,2.5448083446547312,0.98864446706737363,0,-44.686360342055920,0,-0.58277032727827449,0,-9999.,-9999.,-1.28304069972556313E-002,0,-9.8573999425757304,-1.4114597638557833,-9999.,0.88641662904439567,1314.7446533830991,1.64290457043646532E-002,108.46367560026528,198.30619171236617,297.09881130449827
201301031830,-9999.,2.5342337345652011,1.1673012101088152,0,-50.936302132626878,0,-0.70236563553820386,0,-9999.,-9999.,-1.54581884049032892E-002,0,-8.9151451581820282,-0.40668746617907353,-9999.,0.96264850352992637,1477.0523913625884,1.46237195960759996E-002,110.47877844741900,201.99044240105317,302.61849019452671
201301031900,-9999.,2.5021601006747645,1.2053238848108199,0,-39.432580956635547,0,-0.53311896102248546,1,-9999.,-9999.,-1.17292752971185615E-002,1,-8.9645276742579529,-1.2350900326716130,-9999.,0.97773835159525613,1998.4451617202160,1.08084026590988432E-002,106.83740149524402,195.33284397486418,292.64419457882354
201301031930,-9999.,2.4442413450781149,1.3510218615911627,0,-31.844813155653497,0,-0.30667935351182174,0,-9999.,-9999.,-6.74556657900498256E-003,0,-6.8472599361320325,-2.2324427759170415,-9999.,1.0347809952716567,2932.6985740065043,7.36523016427534719E-003,108.24288126352910,197.90250924607051,296.49402140941083
201301032000,-9999.,2.3792959368305704,1.2368483561858730,0,-29.425230780995165,0,-0.27149096514119569,0,-9999.,-9999.,-5.96972037011870953E-003,0,-8.1991080305744237,-2.5072662949641056,-9999.,0.98944655432835404,2774.7160975066095,7.78458020242503348E-003,103.56587652708299,189.35145293369288,283.68298084699558
201301032030,-9999.,2.2703129147159222,1.2307400439991845,0,-33.287804469586909,0,-0.26813527854042979,0,-9999.,-9999.,-5.89414736400778287E-003,0,-7.9830538366631361,-4.2121236950400576,-9999.,0.98657244189397153,2430.6945481358212,8.88634897238147273E-003,100.47374005926596,183.69804128417817,275.21314000953936
201301032100,-9999.,2.1660678920633405,1.6189225418069904,0,-23.285676002845495,0,-0.14697074181963707,1,-9999.,-9999.,-3.23037698872580357E-003,1,-2.7122918574449928,-4.0280660363257876,-9999.,1.1316787104436745,5241.6532667815418,4.12083724363987609E-003,103.83149925913042,189.83709600390091,284.41056266192123
201301032130,-9999.,2.1155550250058446,1.8672305607930504,0,-17.033553530922706,0,-7.56253321659274697E-003,0,-9999.,-9999.,-1.66206356362795868E-004,0,-2.5472755780434824,-1.9519377315524136,-9999.,1.2153869927985856,8873.3388525928076,2.43425844079970394E-003,110.56217305071713,202.14291433322671,302.84692093294649
201301032200,-9999.,2.1157219470223696,1.5434480372158561,0,-2.9418965322600772,0,0.18382454355952380,0,-9999.,-9999.,4.04038952122772865E-003,0,2.3885165533196777,6.44392734342788456E-003,-9999.,1.1054914589064189,38647.828269226644,5.58892982279136571E-004,102.09969411984608,186.67080387836887,279.66688008390662
201301032230,-9999.,2.1264867608007871,1.5786950493401015,0,-16.397953286204871,0,2.36039216339125092E-002,0,-9999.,-9999.,5.18834086328089886E-004,0,1.4894100237928642,0.41516759647968332,-9999.,1.1185544679095436,7178.8986987372318,3.00881805224517814E-003,105.32519950191313,192.56805643896615,288.50203903979622
201301032300,-9999.,2.1201073301573836,1.6735477258058697,0,-29.027396474568405,0,-0.17399682072026873,0,-9999.,-9999.,-3.82494262900880556E-003,0,2.3761622873832975,-0.24581152770132686,-9999.,1.1521398639453551,4430.3902425766628,4.87541702137681086E-003,107.57292337195230,196.67761254815778,294.65890295053526
201301032330,-9999.,2.1097925667917363,1.5119706747769295,0,-1.2177188304835382,2,0.10978364479749277,0,-9999.,-9999.,2.41262591822561778E-003,0,-7.9493555744984770,-0.39791394957080722,-9999.,1.0946312399595834,90548.085974568618,2.38547284213899219E-004,101.22815381422096,185.07735023616235,277.27959616261063
201301040000,-9999.,2.1282374594193567,1.3912251585701838,0,-40.593112271728806,0,-0.44034737945244301,0,-9999.,-9999.,-9.67422668020301996E-003,0,-7.9766076187064243,0.71273056723121808,-9999.,1.0493067164832801,2392.8554280570766,9.02687214059502176E-003,101.81506500328784,186.15041107549965,278.88723683722424
